Time,TemperatureF,DewpointF,PressureIn,WindDirection,WindDirectionDegrees,WindSpeedMPH,WindSpeedGustMPH,Humidity,HourlyPrecipIn,Conditions,Clouds,dailyrainin,SoftwareType,DateUTC
2013-06-05 00:12:00,43.0,33.0,-100.00,NE,35,5.0,6.0,69,0.00,,,0.00,,2013-06-05 06:12:00,
2013-06-05 00:22:00,43.0,33.0,-100.00,NE,35,5.0,6.0,69,0.00,,,0.00,,2013-06-05 06:22:00,
2013-06-05 00:32:00,43.0,33.0,-100.00,NE,35,5.0,6.0,69,0.00,,,0.00,,2013-06-05 06:32:00,
2013-06-05 00:42:00,43.0,33.0,-100.00,NE,35,5.0,6.0,69,0.00,,,0.00,,2013-06-05 06:42:00,
2013-06-05 00:52:00,43.0,33.0,-100.00,NE,35,5.0,6.0,69,0.00,,,0.00,,2013-06-05 06:52:00,
2013-06-05 01:12:00,39.0,33.0,-100.00,NNE,31,6.0,7.0,77,0.00,,,0.00,,2013-06-05 07:12:00,
2013-06-05 01:22:00,39.0,33.0,-100.00,NNE,31,6.0,7.0,77,0.00,,,0.00,,2013-06-05 07:22:00,
2013-06-05 01:32:00,39.0,33.0,-100.00,NNE,31,6.0,7.0,77,0.00,,,0.00,,2013-06-05 07:32:00,
2013-06-05 01:42:00,39.0,33.0,-100.00,NNE,31,6.0,7.0,77,0.00,,,0.00,,2013-06-05 07:42:00,
2013-06-05 01:52:00,39.0,33.0,-100.00,NNE,31,6.0,7.0,77,0.00,,,0.00,,2013-06-05 07:52:00,
2013-06-05 02:12:00,36.0,32.0,-100.00,SSW,195,2.0,4.0,86,0.00,,,0.00,,2013-06-05 08:12:00,
2013-06-05 02:22:00,36.0,32.0,-100.00,SSW,195,2.0,4.0,86,0.00,,,0.00,,2013-06-05 08:22:00,
2013-06-05 02:32:00,36.0,32.0,-100.00,SSW,195,2.0,4.0,86,0.00,,,0.00,,2013-06-05 08:32:00,
2013-06-05 02:42:00,36.0,32.0,-100.00,SSW,195,2.0,4.0,86,0.00,,,0.00,,2013-06-05 08:42:00,
2013-06-05 02:52:00,36.0,32.0,-100.00,SSW,195,2.0,4.0,86,0.00,,,0.00,,2013-06-05 08:52:00,
2013-06-05 03:12:00,32.0,30.0,-100.00,SW,236,1.0,2.0,94,0.00,,,0.00,,2013-06-05 09:12:00,
2013-06-05 03:22:00,32.0,30.0,-100.00,SW,236,1.0,2.0,94,0.00,,,0.00,,2013-06-05 09:22:00,
2013-06-05 03:32:00,32.0,30.0,-100.00,SW,236,1.0,2.0,94,0.00,,,0.00,,2013-06-05 09:32:00,
2013-06-05 03:42:00,32.0,30.0,-100.00,SW,236,1.0,2.0,94,0.00,,,0.00,,2013-06-05 09:42:00,
2013-06-05 03:52:00,32.0,30.0,-100.00,SW,236,1.0,2.0,94,0.00,,,0.00,,2013-06-05 09:52:00,
2013-06-05 04:12:00,30.0,29.0,-100.00,WNW,283,2.0,2.0,96,0.00,,,0.00,,2013-06-05 10:12:00,
2013-06-05 04:22:00,30.0,29.0,-100.00,WNW,283,2.0,2.0,96,0.00,,,0.00,,2013-06-05 10:22:00,
2013-06-05 04:33:00,30.0,29.0,-100.00,WNW,283,2.0,2.0,96,0.00,,,0.00,,2013-06-05 10:33:00,
2013-06-05 04:42:00,30.0,29.0,-100.00,WNW,283,2.0,2.0,96,0.00,,,0.00,,2013-06-05 10:42:00,
2013-06-05 04:52:00,30.0,29.0,-100.00,WNW,283,2.0,2.0,96,0.00,,,0.00,,2013-06-05 10:52:00,
2013-06-05 05:12:00,29.0,28.0,-100.00,NNE,18,4.0,5.0,98,0.00,,,0.00,,2013-06-05 11:12:00,
2013-06-05 05:22:00,29.0,28.0,-100.00,NNE,18,4.0,5.0,98,0.00,,,0.00,,2013-06-05 11:22:00,
2013-06-05 05:32:00,29.0,28.0,-100.00,NNE,18,4.0,5.0,98,0.00,,,0.00,,2013-06-05 11:32:00,
2013-06-05 05:42:00,29.0,28.0,-100.00,NNE,18,4.0,5.0,98,0.00,,,0.00,,2013-06-05 11:42:00,
2013-06-05 05:51:00,29.0,28.0,-100.00,NNE,18,4.0,5.0,98,0.00,,,0.00,,2013-06-05 11:51:00,
2013-06-05 06:12:00,31.0,29.0,-100.00,NE,37,4.0,6.0,93,0.00,,,0.00,,2013-06-05 12:12:00,
2013-06-05 06:22:00,31.0,29.0,-100.00,NE,37,4.0,6.0,93,0.00,,,0.00,,2013-06-05 12:22:00,
2013-06-05 06:32:00,31.0,29.0,-100.00,NE,37,4.0,6.0,93,0.00,,,0.00,,2013-06-05 12:32:00,
2013-06-05 06:43:00,31.0,29.0,-100.00,NE,37,4.0,6.0,93,0.00,,,0.00,,2013-06-05 12:43:00,
2013-06-05 06:52:00,31.0,29.0,-100.00,NE,37,4.0,6.0,93,0.00,,,0.00,,2013-06-05 12:52:00,
2013-06-05 07:12:00,37.0,31.0,-100.00,NE,45,4.0,7.0,78,0.00,,,0.00,,2013-06-05 13:12:00,
2013-06-05 07:22:00,37.0,31.0,-100.00,NE,45,4.0,7.0,78,0.00,,,0.00,,2013-06-05 13:22:00,
2013-06-05 07:32:00,37.0,31.0,-100.00,NE,45,4.0,7.0,78,0.00,,,0.00,,2013-06-05 13:32:00,
2013-06-05 07:42:00,37.0,31.0,-100.00,NE,45,4.0,7.0,78,0.00,,,0.00,,2013-06-05 13:42:00,
2013-06-05 07:52:00,37.0,31.0,-100.00,NE,45,4.0,7.0,78,0.00,,,0.00,,2013-06-05 13:52:00,
2013-06-05 08:12:00,45.0,33.0,-100.00,NNE,19,4.0,8.0,62,0.00,,,0.00,,2013-06-05 14:12:00,
2013-06-05 08:22:00,45.0,33.0,-100.00,NNE,19,4.0,8.0,62,0.00,,,0.00,,2013-06-05 14:22:00,
2013-06-05 08:32:00,45.0,33.0,-100.00,NNE,19,4.0,8.0,62,0.00,,,0.00,,2013-06-05 14:32:00,
2013-06-05 08:42:00,45.0,33.0,-100.00,NNE,19,4.0,8.0,62,0.00,,,0.00,,2013-06-05 14:42:00,
2013-06-05 08:52:00,45.0,33.0,-100.00,NNE,19,4.0,8.0,62,0.00,,,0.00,,2013-06-05 14:52:00,
2013-06-05 09:12:00,51.0,33.0,-100.00,NNE,15,6.0,7.0,50,0.00,,,0.00,,2013-06-05 15:12:00,
2013-06-05 09:22:00,51.0,33.0,-100.00,NNE,15,6.0,7.0,50,0.00,,,0.00,,2013-06-05 15:22:00,
2013-06-05 09:33:00,51.0,33.0,-100.00,NNE,15,6.0,7.0,50,0.00,,,0.00,,2013-06-05 15:33:00,
2013-06-05 09:42:00,51.0,33.0,-100.00,NNE,15,6.0,7.0,50,0.00,,,0.00,,2013-06-05 15:42:00,
2013-06-05 09:53:00,51.0,33.0,-100.00,NNE,15,6.0,7.0,50,0.00,,,0.00,,2013-06-05 15:53:00,
2013-06-05 10:12:00,56.0,35.0,-100.00,NE,41,5.0,8.0,45,0.00,,,0.00,,2013-06-05 16:12:00,
2013-06-05 10:22:00,56.0,35.0,-100.00,NE,41,5.0,8.0,45,0.00,,,0.00,,2013-06-05 16:22:00,
2013-06-05 10:32:00,56.0,35.0,-100.00,NE,41,5.0,8.0,45,0.00,,,0.00,,2013-06-05 16:32:00,
2013-06-05 10:42:00,56.0,35.0,-100.00,NE,41,5.0,8.0,45,0.00,,,0.00,,2013-06-05 16:42:00,
2013-06-05 10:53:00,56.0,35.0,-100.00,NE,41,5.0,8.0,45,0.00,,,0.00,,2013-06-05 16:53:00,
2013-06-05 11:12:00,59.0,31.0,-100.00,NW,310,6.0,8.0,34,0.00,,,0.00,,2013-06-05 17:12:00,
2013-06-05 11:22:00,59.0,31.0,-100.00,NW,310,6.0,8.0,34,0.00,,,0.00,,2013-06-05 17:22:00,
2013-06-05 11:32:00,59.0,31.0,-100.00,NW,310,6.0,8.0,34,0.00,,,0.00,,2013-06-05 17:32:00,
2013-06-05 11:42:00,59.0,31.0,-100.00,NW,310,6.0,8.0,34,0.00,,,0.00,,2013-06-05 17:42:00,
2013-06-05 11:52:00,59.0,31.0,-100.00,NW,310,6.0,8.0,34,0.00,,,0.00,,2013-06-05 17:52:00,
2013-06-05 12:12:00,61.0,33.0,-100.00,West,272,7.0,12.0,35,0.00,,,0.00,,2013-06-05 18:12:00,
2013-06-05 12:22:00,61.0,33.0,-100.00,West,272,7.0,12.0,35,0.00,,,0.00,,2013-06-05 18:22:00,
2013-06-05 12:32:00,61.0,33.0,-100.00,West,272,7.0,12.0,35,0.00,,,0.00,,2013-06-05 18:32:00,
2013-06-05 12:42:00,61.0,33.0,-100.00,West,272,7.0,12.0,35,0.00,,,0.00,,2013-06-05 18:42:00,
2013-06-05 12:52:00,61.0,33.0,-100.00,West,272,7.0,12.0,35,0.00,,,0.00,,2013-06-05 18:52:00,
2013-06-05 13:12:00,62.0,33.0,-100.00,NW,309,6.0,9.0,34,0.00,,,0.00,,2013-06-05 19:12:00,
2013-06-05 13:23:00,62.0,33.0,-100.00,NW,309,6.0,9.0,34,0.00,,,0.00,,2013-06-05 19:23:00,
2013-06-05 13:32:00,62.0,33.0,-100.00,NW,309,6.0,9.0,34,0.00,,,0.00,,2013-06-05 19:32:00,
2013-06-05 13:42:00,62.0,33.0,-100.00,NW,309,6.0,9.0,34,0.00,,,0.00,,2013-06-05 19:42:00,
2013-06-05 13:52:00,62.0,33.0,-100.00,NW,309,6.0,9.0,34,0.00,,,0.00,,2013-06-05 19:52:00,
2013-06-05 14:12:00,65.0,37.0,-100.00,West,276,5.0,9.0,35,0.00,,,0.00,,2013-06-05 20:12:00,
2013-06-05 14:22:00,65.0,37.0,-100.00,West,276,5.0,9.0,35,0.00,,,0.00,,2013-06-05 20:22:00,
2013-06-05 14:32:00,65.0,37.0,-100.00,West,276,5.0,9.0,35,0.00,,,0.00,,2013-06-05 20:32:00,
2013-06-05 14:42:00,65.0,37.0,-100.00,West,276,5.0,9.0,35,0.00,,,0.00,,2013-06-05 20:42:00,
2013-06-05 14:52:00,65.0,37.0,-100.00,West,276,5.0,9.0,35,0.00,,,0.00,,2013-06-05 20:52:00,
2013-06-05 15:12:00,68.0,36.0,-100.00,West,279,9.0,15.0,31,0.00,,,0.00,,2013-06-05 21:12:00,
2013-06-05 15:22:00,68.0,36.0,-100.00,West,279,9.0,15.0,31,0.00,,,0.00,,2013-06-05 21:22:00,
2013-06-05 15:33:00,68.0,36.0,-100.00,West,279,9.0,15.0,31,0.00,,,0.00,,2013-06-05 21:33:00,
2013-06-05 15:43:00,68.0,36.0,-100.00,West,279,9.0,15.0,31,0.00,,,0.00,,2013-06-05 21:43:00,
2013-06-05 15:53:00,68.0,36.0,-100.00,West,279,9.0,15.0,31,0.00,,,0.00,,2013-06-05 21:53:00,
2013-06-05 16:12:00,69.0,36.0,-100.00,SW,225,8.0,13.0,30,0.00,,,0.00,,2013-06-05 22:12:00,
2013-06-05 16:22:00,69.0,36.0,-100.00,SW,225,8.0,13.0,30,0.00,,,0.00,,2013-06-05 22:22:00,
2013-06-05 16:32:00,69.0,36.0,-100.00,SW,225,8.0,13.0,30,0.00,,,0.00,,2013-06-05 22:32:00,
2013-06-05 16:42:00,69.0,36.0,-100.00,SW,225,8.0,13.0,30,0.00,,,0.00,,2013-06-05 22:42:00,
2013-06-05 16:52:00,69.0,36.0,-100.00,SW,225,8.0,13.0,30,0.00,,,0.00,,2013-06-05 22:52:00,
2013-06-05 17:12:00,69.0,37.0,-100.00,SSW,197,5.0,8.0,30,0.00,,,0.00,,2013-06-05 23:12:00,
2013-06-05 17:22:00,69.0,37.0,-100.00,SSW,197,5.0,8.0,30,0.00,,,0.00,,2013-06-05 23:22:00,
2013-06-05 17:32:00,69.0,37.0,-100.00,SSW,197,5.0,8.0,30,0.00,,,0.00,,2013-06-05 23:32:00,
2013-06-05 17:42:00,69.0,37.0,-100.00,SSW,197,5.0,8.0,30,0.00,,,0.00,,2013-06-05 23:42:00,
2013-06-05 17:52:00,69.0,37.0,-100.00,SSW,197,5.0,8.0,30,0.00,,,0.00,,2013-06-05 23:52:00,
2013-06-05 18:12:00,70.0,34.0,-100.00,WSW,241,4.0,7.0,27,0.00,,,0.00,,2013-06-06 00:12:00,
2013-06-05 18:22:00,70.0,34.0,-100.00,WSW,241,4.0,7.0,27,0.00,,,0.00,,2013-06-06 00:22:00,
2013-06-05 18:32:00,70.0,34.0,-100.00,WSW,241,4.0,7.0,27,0.00,,,0.00,,2013-06-06 00:32:00,
2013-06-05 18:42:00,70.0,34.0,-100.00,WSW,241,4.0,7.0,27,0.00,,,0.00,,2013-06-06 00:42:00,
2013-06-05 18:51:00,70.0,34.0,-100.00,WSW,241,4.0,7.0,27,0.00,,,0.00,,2013-06-06 00:51:00,
2013-06-05 19:12:00,70.0,36.0,-100.00,SW,231,8.0,13.0,29,0.00,,,0.00,,2013-06-06 01:12:00,
2013-06-05 19:22:00,70.0,36.0,-100.00,SW,231,8.0,13.0,29,0.00,,,0.00,,2013-06-06 01:22:00,
2013-06-05 19:32:00,70.0,36.0,-100.00,SW,231,8.0,13.0,29,0.00,,,0.00,,2013-06-06 01:32:00,
2013-06-05 19:42:00,70.0,36.0,-100.00,SW,231,8.0,13.0,29,0.00,,,0.00,,2013-06-06 01:42:00,
2013-06-05 19:52:00,70.0,36.0,-100.00,SW,231,8.0,13.0,29,0.00,,,0.00,,2013-06-06 01:52:00,
2013-06-05 20:12:00,65.0,38.0,-100.00,SW,228,5.0,8.0,36,0.00,,,0.00,,2013-06-06 02:12:00,
2013-06-05 20:22:00,65.0,38.0,-100.00,SW,228,5.0,8.0,36,0.00,,,0.00,,2013-06-06 02:22:00,
2013-06-05 20:32:00,65.0,38.0,-100.00,SW,228,5.0,8.0,36,0.00,,,0.00,,2013-06-06 02:32:00,
2013-06-05 20:42:00,65.0,38.0,-100.00,SW,228,5.0,8.0,36,0.00,,,0.00,,2013-06-06 02:42:00,
2013-06-05 20:51:00,65.0,38.0,-100.00,SW,228,5.0,8.0,36,0.00,,,0.00,,2013-06-06 02:51:00,
2013-06-05 21:12:00,60.0,41.0,-100.00,SSW,207,6.0,8.0,49,0.00,,,0.00,,2013-06-06 03:12:00,
2013-06-05 21:22:00,60.0,41.0,-100.00,SSW,207,6.0,8.0,49,0.00,,,0.00,,2013-06-06 03:22:00,
2013-06-05 21:33:00,60.0,41.0,-100.00,SSW,207,6.0,8.0,49,0.00,,,0.00,,2013-06-06 03:33:00,
2013-06-05 21:43:00,60.0,41.0,-100.00,SSW,207,6.0,8.0,49,0.00,,,0.00,,2013-06-06 03:43:00,
2013-06-05 21:52:00,60.0,41.0,-100.00,SSW,207,6.0,8.0,49,0.00,,,0.00,,2013-06-06 03:52:00,
2013-06-05 22:13:00,52.0,41.0,-100.00,SW,224,2.0,4.0,65,0.00,,,0.00,,2013-06-06 04:13:00,
2013-06-05 22:23:00,52.0,41.0,-100.00,SW,224,2.0,4.0,65,0.00,,,0.00,,2013-06-06 04:23:00,
2013-06-05 22:33:00,52.0,41.0,-100.00,SW,224,2.0,4.0,65,0.00,,,0.00,,2013-06-06 04:33:00,
2013-06-05 22:42:00,52.0,41.0,-100.00,SW,224,2.0,4.0,65,0.00,,,0.00,,2013-06-06 04:42:00,
2013-06-05 22:52:00,52.0,41.0,-100.00,SW,224,2.0,4.0,65,0.00,,,0.00,,2013-06-06 04:52:00,
2013-06-05 23:12:00,48.0,42.0,-100.00,NNE,27,1.0,2.0,78,0.00,,,0.00,,2013-06-06 05:12:00,
2013-06-05 23:22:00,48.0,42.0,-100.00,NNE,27,1.0,2.0,78,0.00,,,0.00,,2013-06-06 05:22:00,
2013-06-05 23:32:00,48.0,42.0,-100.00,NNE,27,1.0,2.0,78,0.00,,,0.00,,2013-06-06 05:32:00,
2013-06-05 23:42:00,48.0,42.0,-100.00,NNE,27,1.0,2.0,78,0.00,,,0.00,,2013-06-06 05:42:00,
2013-06-05 23:52:00,48.0,42.0,-100.00,NNE,27,1.0,2.0,78,0.00,,,0.00,,2013-06-06 05:52:00,